Time,TemperatureF,DewpointF,PressureIn,WindDirection,WindDirectionDegrees,WindSpeedMPH,WindSpeedGustMPH,Humidity,HourlyPrecipIn,Conditions,Clouds,dailyrainin,SoftwareType,DateUTC
2015-05-22 00:03:00,48.7,35.3,0.00,North,0,0.0,0.0,60,0.00,,SKC,0.00,VWS V14.01,2015-05-22 04:03:00,
2015-05-22 00:04:00,48.7,36.1,0.00,North,0,0.0,0.0,61,0.00,,SKC,0.00,VWS V14.01,2015-05-22 04:04:00,
2015-05-22 00:09:00,48.7,36.1,0.00,North,0,0.0,0.0,61,0.00,,SKC,0.00,VWS V14.01,2015-05-22 04:09:00,
2015-05-22 00:14:00,48.7,36.1,0.00,North,0,0.0,0.0,61,0.00,,SKC,0.00,VWS V14.01,2015-05-22 04:14:00,
2015-05-22 00:19:00,48.7,36.1,0.00,North,0,0.0,0.0,61,0.00,,SKC,0.00,VWS V14.01,2015-05-22 04:19:00,
2015-05-22 00:29:00,48.7,36.8,0.00,North,0,0.0,0.0,63,0.00,,SKC,0.00,VWS V14.01,2015-05-22 04:29:00,
2015-05-22 00:34:00,48.7,37.5,0.00,North,0,0.0,0.0,65,0.00,,SKC,0.00,VWS V14.01,2015-05-22 04:34:00,
2015-05-22 00:39:00,48.7,37.5,0.00,North,0,0.0,0.0,65,0.00,,SKC,0.00,VWS V14.01,2015-05-22 04:39:00,
2015-05-22 00:44:00,48.7,37.5,0.00,North,0,0.0,0.0,65,0.00,,SKC,0.00,VWS V14.01,2015-05-22 04:44:00,
2015-05-22 00:49:00,48.7,38.3,0.00,North,0,0.0,0.0,67,0.00,,SKC,0.00,VWS V14.01,2015-05-22 04:49:00,
2015-05-22 00:54:00,48.6,38.1,0.00,North,0,0.0,0.0,67,0.00,,SKC,0.00,VWS V14.01,2015-05-22 04:54:00,
2015-05-22 00:59:00,48.6,38.1,0.00,North,0,0.0,0.0,67,0.00,,SKC,0.00,VWS V14.01,2015-05-22 04:59:00,
2015-05-22 01:04:00,48.6,38.8,0.00,North,0,0.0,0.0,69,0.00,,SKC,0.00,VWS V14.01,2015-05-22 05:04:00,
2015-05-22 01:09:00,48.4,38.6,0.00,North,0,0.0,0.0,69,0.00,,SKC,0.00,VWS V14.01,2015-05-22 05:09:00,
2015-05-22 01:14:00,48.4,38.6,0.00,North,0,0.0,0.0,69,0.00,,SKC,0.00,VWS V14.01,2015-05-22 05:14:00,
2015-05-22 01:19:00,48.4,38.6,0.00,North,0,0.0,0.0,69,0.00,,SKC,0.00,VWS V14.01,2015-05-22 05:19:00,
2015-05-22 01:24:00,48.2,38.5,0.00,North,0,0.0,0.0,69,0.00,,SKC,0.00,VWS V14.01,2015-05-22 05:24:00,
2015-05-22 01:29:00,48.2,38.5,0.00,North,0,0.0,0.0,69,0.00,,SKC,0.00,VWS V14.01,2015-05-22 05:29:00,
2015-05-22 01:34:00,48.2,38.5,0.00,North,0,0.0,0.0,69,0.00,,SKC,0.00,VWS V14.01,2015-05-22 05:34:00,
2015-05-22 01:40:00,48.2,38.5,0.00,North,0,0.0,0.0,69,0.00,,SKC,0.00,VWS V14.01,2015-05-22 05:40:00,
2015-05-22 01:45:00,48.2,38.5,0.00,North,0,0.0,0.0,69,0.00,,SKC,0.00,VWS V14.01,2015-05-22 05:45:00,
2015-05-22 01:50:00,48.0,39.0,0.00,North,0,0.0,0.0,71,0.00,,SKC,0.00,VWS V14.01,2015-05-22 05:50:00,
2015-05-22 01:55:00,48.0,39.0,0.00,North,0,0.0,0.0,71,0.00,,SKC,0.00,VWS V14.01,2015-05-22 05:55:00,
2015-05-22 02:00:00,47.8,38.8,0.00,North,0,0.0,0.0,71,0.00,,SKC,0.00,VWS V14.01,2015-05-22 06:00:00,
2015-05-22 02:05:00,47.7,38.6,0.00,North,0,0.0,0.0,71,0.00,,SKC,0.00,VWS V14.01,2015-05-22 06:05:00,
2015-05-22 02:10:00,47.7,38.6,0.00,North,0,0.0,0.0,71,0.00,,SKC,0.00,VWS V14.01,2015-05-22 06:10:00,
2015-05-22 02:15:00,47.5,38.4,0.00,North,0,0.0,0.0,71,0.00,,SKC,0.00,VWS V14.01,2015-05-22 06:15:00,
2015-05-22 02:20:00,47.5,38.4,0.00,North,0,0.0,0.0,71,0.00,,SKC,0.00,VWS V14.01,2015-05-22 06:20:00,
2015-05-22 02:25:00,47.3,38.3,0.00,North,0,0.0,0.0,71,0.00,,SKC,0.00,VWS V14.01,2015-05-22 06:25:00,
2015-05-22 02:30:00,47.3,38.3,0.00,North,0,0.0,0.0,71,0.00,,SKC,0.00,VWS V14.01,2015-05-22 06:30:00,
2015-05-22 02:35:00,47.1,38.1,0.00,North,0,0.0,0.0,71,0.00,,SKC,0.00,VWS V14.01,2015-05-22 06:35:00,
2015-05-22 02:40:00,47.1,38.1,0.00,North,0,0.0,0.0,71,0.00,,SKC,0.00,VWS V14.01,2015-05-22 06:40:00,
2015-05-22 02:45:00,47.1,38.1,0.00,North,0,0.0,0.0,71,0.00,,SKC,0.00,VWS V14.01,2015-05-22 06:45:00,
2015-05-22 02:50:00,47.1,38.8,0.00,North,0,0.0,0.0,73,0.00,,SKC,0.00,VWS V14.01,2015-05-22 06:50:00,
2015-05-22 02:55:00,46.9,38.6,0.00,North,0,0.0,0.0,73,0.00,,SKC,0.00,VWS V14.01,2015-05-22 06:55:00,
2015-05-22 03:00:00,46.9,38.6,0.00,North,0,0.0,0.0,73,0.00,,SKC,0.00,VWS V14.01,2015-05-22 07:00:00,
2015-05-22 03:05:00,46.8,38.4,0.00,North,0,0.0,0.0,73,0.00,,SKC,0.00,VWS V14.01,2015-05-22 07:05:00,
2015-05-22 03:10:00,46.8,38.4,0.00,North,0,0.0,0.0,73,0.00,,SKC,0.00,VWS V14.01,2015-05-22 07:10:00,
2015-05-22 03:15:00,46.8,38.4,0.00,North,0,0.0,0.0,73,0.00,,SKC,0.00,VWS V14.01,2015-05-22 07:15:00,
2015-05-22 03:20:00,46.9,38.6,0.00,North,0,0.0,0.0,73,0.00,,SKC,0.00,VWS V14.01,2015-05-22 07:20:00,
2015-05-22 03:25:00,46.9,38.6,0.00,North,0,0.0,0.0,73,0.00,,SKC,0.00,VWS V14.01,2015-05-22 07:25:00,
2015-05-22 03:30:00,47.1,39.4,0.00,North,0,0.0,0.0,74,0.00,,SKC,0.00,VWS V14.01,2015-05-22 07:30:00,
2015-05-22 03:35:00,47.3,39.6,0.00,North,0,0.0,0.0,74,0.00,,SKC,0.00,VWS V14.01,2015-05-22 07:35:00,
2015-05-22 03:40:00,47.3,39.6,0.00,North,0,0.0,0.0,74,0.00,,SKC,0.00,VWS V14.01,2015-05-22 07:40:00,
2015-05-22 03:45:00,47.5,39.8,0.00,North,0,0.0,0.0,74,0.00,,SKC,0.00,VWS V14.01,2015-05-22 07:45:00,
2015-05-22 03:50:00,47.7,39.9,0.00,North,0,0.0,0.0,74,0.00,,SKC,0.00,VWS V14.01,2015-05-22 07:50:00,
2015-05-22 03:55:00,47.7,39.9,0.00,North,0,0.0,0.0,74,0.00,,SKC,0.00,VWS V14.01,2015-05-22 07:55:00,
2015-05-22 04:00:00,47.7,39.9,0.00,North,0,0.0,0.0,74,0.00,,SKC,0.00,VWS V14.01,2015-05-22 08:00:00,
2015-05-22 04:05:00,47.7,39.9,0.00,North,0,0.0,0.0,74,0.00,,SKC,0.00,VWS V14.01,2015-05-22 08:05:00,
2015-05-22 04:10:00,47.7,39.9,0.00,North,0,0.0,0.0,74,0.00,,SKC,0.00,VWS V14.01,2015-05-22 08:10:00,
2015-05-22 04:15:00,47.5,39.8,0.00,North,0,0.0,0.0,74,0.00,,SKC,0.00,VWS V14.01,2015-05-22 08:15:00,
2015-05-22 04:20:00,47.5,39.8,0.00,North,0,0.0,0.0,74,0.00,,SKC,0.00,VWS V14.01,2015-05-22 08:20:00,
2015-05-22 04:25:00,47.5,39.8,0.00,North,0,0.0,0.0,74,0.00,,SKC,0.00,VWS V14.01,2015-05-22 08:25:00,
2015-05-22 04:30:00,47.3,39.6,0.00,North,0,0.0,0.0,74,0.00,,SKC,0.00,VWS V14.01,2015-05-22 08:30:00,
2015-05-22 04:35:00,47.3,39.6,0.00,North,0,0.0,0.0,74,0.00,,SKC,0.00,VWS V14.01,2015-05-22 08:35:00,
2015-05-22 04:40:00,47.1,39.4,0.00,North,0,0.0,0.0,74,0.00,,SKC,0.00,VWS V14.01,2015-05-22 08:40:00,
2015-05-22 04:45:00,46.9,39.2,0.00,North,0,0.0,0.0,74,0.00,,SKC,0.00,VWS V14.01,2015-05-22 08:45:00,
2015-05-22 04:50:00,46.8,39.1,0.00,North,0,0.0,0.0,74,0.00,,SKC,0.00,VWS V14.01,2015-05-22 08:50:00,
2015-05-22 04:55:00,46.8,39.1,0.00,North,0,0.0,0.0,74,0.00,,SKC,0.00,VWS V14.01,2015-05-22 08:55:00,
2015-05-22 05:00:00,46.8,39.1,0.00,North,0,0.0,0.0,74,0.00,,SKC,0.00,VWS V14.01,2015-05-22 09:00:00,
2015-05-22 05:05:00,46.8,39.1,0.00,North,0,0.0,0.0,74,0.00,,SKC,0.00,VWS V14.01,2015-05-22 09:05:00,
2015-05-22 05:10:00,46.6,38.9,0.00,North,0,0.0,0.0,74,0.00,,SKC,0.00,VWS V14.01,2015-05-22 09:10:00,
2015-05-22 05:15:00,46.4,38.7,0.00,North,0,0.0,0.0,74,0.00,,SKC,0.00,VWS V14.01,2015-05-22 09:15:00,
2015-05-22 05:20:00,46.4,38.7,0.00,North,0,0.0,0.0,74,0.00,,SKC,0.00,VWS V14.01,2015-05-22 09:20:00,
2015-05-22 05:25:00,46.2,39.2,0.00,North,0,0.0,0.0,76,0.00,,SKC,0.00,VWS V14.01,2015-05-22 09:25:00,
2015-05-22 05:35:00,46.2,39.2,0.00,North,0,0.0,0.0,76,0.00,,SKC,0.00,VWS V14.01,2015-05-22 09:35:00,
2015-05-22 05:40:00,46.2,39.2,0.00,North,0,0.0,0.0,76,0.00,,SKC,0.00,VWS V14.01,2015-05-22 09:40:00,
2015-05-22 05:45:00,46.0,39.6,0.00,North,0,0.0,0.0,78,0.00,,SKC,0.00,VWS V14.01,2015-05-22 09:45:00,
2015-05-22 05:50:00,46.0,39.6,0.00,North,0,0.0,0.0,78,0.00,,SKC,0.00,VWS V14.01,2015-05-22 09:50:00,
2015-05-22 05:55:00,46.0,39.6,0.00,North,0,0.0,0.0,78,0.00,,SKC,0.00,VWS V14.01,2015-05-22 09:55:00,
2015-05-22 06:00:00,45.9,39.4,0.00,North,0,0.0,0.0,78,0.00,,SKC,0.00,VWS V14.01,2015-05-22 10:00:00,
2015-05-22 06:05:00,45.9,39.4,0.00,North,0,0.0,0.0,78,0.00,,SKC,0.00,VWS V14.01,2015-05-22 10:05:00,
2015-05-22 06:10:00,45.7,39.3,0.00,North,0,0.0,0.0,78,0.00,,SKC,0.00,VWS V14.01,2015-05-22 10:10:00,